Location: Mason Neck State Park
(38.6428°N, 77.1981°W)
Time: 16:41:00
(UTC-04:00)

Cosmos 2278 Rocket - Visible Passes

Search period start: 30 April 2017 00:00
Search period end: 10 May 2017 00:00
Orbit: 841 x 846 km, 71.0° (Epoch: 29 April)

Date Brightness Start Highest point End Pass type
(mag) Time Alt. Az. Time Alt. Az. Time Alt. Az.
30 Apr 3.7 21:29:10 10° N 21:33:28 22° NE 21:35:33 18° E visible
30 Apr 2.7 23:12:23 10° NNW 23:17:25 52° W 23:17:25 52° W visible
01 May 3.7 21:14:41 10° N 21:18:54 21° NE 21:21:34 15° E visible
01 May 2.5 22:57:49 10° NNW 23:03:22 56° WSW 23:03:26 56° WSW visible
02 May 3.8 21:00:13 10° N 21:04:19 20° NE 21:07:37 13° E visible
02 May 2.4 22:43:16 10° NNW 22:48:49 59° WSW 22:49:29 55° SW visible
03 May 3.8 20:45:45 10° N 20:49:45 19° NE 20:53:42 10° E visible
03 May 2.4 22:28:42 10° NNW 22:34:18 62° WSW 22:35:34 49° SSW visible
04 May 3.8 20:31:17 10° N 20:35:11 19° NE 20:39:03 10° E visible
04 May 2.4 22:14:09 10° NNW 22:19:45 65° WSW 22:21:42 40° S visible
05 May 2.4 21:59:35 10° NNW 22:05:12 68° WSW 22:07:52 32° S visible
06 May 2.3 21:45:01 10° NNW 21:50:41 71° WSW 21:54:06 24° S visible
07 May 2.3 21:30:29 10° NNW 21:36:08 75° WSW 21:40:23 18° SSE visible
08 May 2.3 21:15:55 10° NNW 21:21:35 78° WSW 21:26:43 13° SSE visible
09 May 2.3 21:01:22 10° NNW 21:07:03 82° WSW 21:12:41 10° SSE visible
